[[{"header":{"parameterUnit":"m.s-1","parameterCategory":1,"la1":30.2991,"la2":30.254,"lo1":-89.0895,"lo2":-89.0444,"dy":0.0017,"dx":0.0017,"nx":28,"ny":28,"refTime":"2025-01-05T03:00:00:Z","depth":0,"parameterNumber":2,"parameterNumberName":"U-component_of_WINDS"},"data":[0,0,0,0,0,0,0,0,0,0,0,0,0,0,0,0,0,0,0,0,0,0,0,0,0,0,0,0,0,0,0,0,0,0,0,0,0,0,0,0,0,0,0,0,0,0,0,0,0,0,0,0,0,0,0,0,0,0,2.4485,2.4485,0,2.4488,2.4488,2.4488,2.4453,2.4452,2.4451,2.445,2.4456,2.4457,2.4458,0,0,0,0,0,0,0,0,0,0,0,0,0,2.4451,2.4452,2.4485,2.4485,2.4485,2.4488,2.4488,2.4488,2.4453,2.4452,2.445,2.4449,2.4455,2.4457,2.4458,0,0,0,0,0,0,0,0,0,0,0,0,0,2.4461,2.4452,2.4485,2.4468,2.4466,2.4488,2.4488,2.4488,2.4453,2.4452,2.445,2.4449,2.4455,2.4457,2.4458,2.4498,0,0,2.4463,2.4464,0,0,0,0,0,0,0,0,2.4461,2.4463,2.447,2.4469,2.4467,2.4469,2.4479,2.4492,2.4454,2.4458,2.445,2.4448,2.4461,2.4462,2.4466,2.4498,2.4498,2.4463,2.4464,2.4465,2.4465,0,0,0,0,0,0,0,2.446,2.4462,2.4486,2.447,2.4469,2.4461,2.4461,2.4481,2.4468,2.4458,2.4455,2.4456,2.446,2.4465,2.4466,2.4498,2.4463,2.4465,2.4466,2.4466,2.4564,2.4566,0,0,0,0,0,0,2.4461,2.4462,2.4486,2.4487,2.446,2.4463,2.4462,2.447,2.4468,2.4466,2.4457,2.4454,2.4463,2.4464,2.4466,2.4513,2.4465,2.4466,2.4467,2.4563,2.4565,2.4566,0,0,0,0,0,0,2.4461,2.4464,2.4486,2.4474,2.4476,2.4465,2.4473,2.4471,2.4475,2.4467,2.4465,2.4464,2.4462,2.4464,2.449,2.4513,2.4467,2.4469,2.4561,2.4563,2.4565,2.4607,0,0,0,0,0,0,2.446,2.4464,2.4478,2.4474,2.4477,2.4509,2.4475,2.4472,2.4478,2.4474,2.4473,2.4472,2.4461,2.4488,2.4492,2.4514,2.447,2.4559,2.4562,2.4565,2.4603,2.461,2.4616,0,0,0,0,0,2.4459,2.449,2.4479,2.4482,2.4494,2.4511,2.4512,2.4498,2.4479,2.4494,2.4489,2.4472,2.451,2.4491,2.4495,2.4518,2.4557,2.4561,2.4564,2.46,2.4609,2.4616,0,0,0,0,0,0,2.4497,2.4489,2.4477,2.4507,2.451,2.4504,2.4522,2.4507,2.4516,2.4512,2.4496,2.4496,2.4525,2.4524,2.4504,2.4557,2.453,2.4535,2.4556,2.4564,2.4571,2.457,2.4471,0,0,0,0,0,2.4509,2.4523,2.4515,2.4543,2.4544,2.4533,2.454,2.4529,2.4532,2.4533,2.453,2.4534,2.4547,2.4555,2.4567,2.4603,2.4603,2.4621,2.4628,2.4633,2.4637,2.4658,2.4666,2.4578,2.4578,2.4578,0,0,2.4534,2.4531,2.4541,2.455,2.4551,2.4566,2.4534,2.4552,2.4563,2.4536,2.456,2.4558,2.4562,2.4593,2.4607,2.4594,2.4662,2.4638,2.4642,2.4643,2.4662,2.467,2.4678,2.4581,2.458,2.458,0,0,2.4587,2.4586,2.4609,2.4611,2.4612,2.4605,2.461,2.4607,2.4605,2.4629,2.4609,2.4623,2.4646,2.4649,2.4654,2.4709,2.4694,2.4714,2.4747,2.4767,2.4774,2.478,2.4801,2.4808,2.4718,2.4718,2.4718,0,2.4618,2.4639,2.4623,2.4642,2.4647,2.4622,2.4646,2.4649,2.4655,2.4659,2.4644,2.4672,2.4672,2.4705,2.4719,2.4723,2.473,2.4713,2.4774,2.478,2.4786,2.4805,2.4813,2.4721,2.472,2.472,2.472,0,2.4677,2.4692,2.4711,2.4716,2.4724,2.4745,2.4734,2.4743,2.4732,2.4727,2.4753,2.4753,2.4764,2.4771,2.4761,2.4803,2.4794,2.4777,2.475,2.4797,2.4815,2.4822,2.4724,2.4723,2.4722,2.4722,0,0,2.4753,2.475,2.4757,2.476,2.476,2.4772,2.4793,2.4804,2.4813,2.4818,2.4836,2.4856,2.484,2.4845,2.4835,2.4853,2.4898,2.4833,2.4833,2.4846,2.4945,2.4958,2.4967,2.4888,2.4889,2.489,2.4945,0,2.4805,2.4839,2.4826,2.4862,2.4877,2.4854,2.4873,2.4876,2.4872,2.4884,2.488,2.4895,2.4873,2.4876,2.4892,2.4889,2.4918,2.4885,2.4905,2.4906,2.4905,2.4976,2.499,2.5042,2.4952,2.4953,2.4954,0,2.4869,2.4877,2.4914,2.4913,2.4918,2.4935,2.4944,2.4956,2.496,2.4956,2.4962,2.4949,2.4971,2.4944,2.4974,2.4952,2.496,2.496,2.4962,2.4963,2.4933,2.498,2.5058,2.5066,2.4965,2.4964,2.4963,0,2.4921,2.4941,2.4966,2.4969,2.4968,2.498,2.4981,2.4983,2.499,2.4999,2.5004,2.5015,2.5021,2.5031,2.5022,2.5003,2.5054,2.5026,2.5052,2.5053,2.5064,2.5063,2.5144,2.5069,2.5069,2.5069,2.5068,0,2.498,2.5004,2.4989,2.5005,2.5031,2.5017,2.5044,2.5042,2.5044,2.506,2.5042,2.5057,2.5043,2.5058,2.5051,2.5078,2.5081,2.5079,2.5077,2.5081,2.5081,2.5085,2.5082,2.5071,2.507,2.507,2.507,0,2.5043,2.5034,2.5059,2.5057,2.5057,2.5077,2.5075,2.509,2.5085,2.5105,2.5109,2.5102,2.5118,2.5109,2.5126,2.5122,2.5157,2.515,2.5155,2.5153,2.518,2.5178,2.5267,2.5278,2.5196,2.5196,2.5197,0,2.5081,2.5098,2.5098,2.5107,2.5108,2.5123,2.513,2.5118,2.5127,2.5133,2.5147,2.5162,2.5172,2.52,2.5197,2.521,2.5203,2.5234,2.5205,2.5209,2.5204,2.5203,2.5206,2.524,2.5241,2.5241,2.5242,0,2.5149,2.5144,2.5155,2.5166,2.5175,2.5183,2.5189,2.5197,2.5185,2.5196,2.5212,2.5221,2.5238,2.5253,2.5265,2.5267,2.5253,2.5251,2.5258,2.5262,2.5264,2.5264,2.5171,2.5249,2.5248,2.5248,2.5247,2.5247,2.5201,2.5216,2.5218,2.5232,2.5235,2.5241,2.5255,2.5252,2.5265,2.5278,2.527,2.5289,2.5294,2.5308,2.5312,2.5328,2.5316,2.5326,2.5328,2.5331,2.5335,2.5262,2.533,2.533,2.533,2.533,2.5329,0,2.5268,2.5269,2.5282,2.5291,2.5302,2.5287,2.5294,2.5304,2.5321,2.5326,2.5338,2.5357,2.5372,2.5371,2.5385,2.5398,2.5392,2.5402,2.5401,2.5402,2.5344,2.5337,2.5406,2.5406,2.5406,2.5406,2.5406,2.5406,2.5305,2.533,2.5325,2.5353,2.5353,2.5371,2.5376,2.5383,2.5387,2.5409,2.5421,2.542,2.5423,2.5438,2.5451,2.5451,2.5457,2.5469,2.5467,2.5413,2.5405,2.5398,2.5391,2.5471,2.5471,2.5522,2.5523,2.5523]},{"header":{"parameterUnit":"m.s-1","parameterCategory":1,"la1":30.2991,"la2":30.254,"lo1":-89.0895,"lo2":-89.0444,"dy":0.0017,"dx":0.0017,"nx":28,"ny":28,"refTime":"2025-01-05T03:00:00:Z","depth":0,"parameterNumber":3,"parameterNumberName":"V-component_of_WINDS"},"data":[0,0,0,0,0,0,0,0,0,0,0,0,0,0,0,0,0,0,0,0,0,0,0,0,0,0,0,0,0,0,0,0,0,0,0,0,0,0,0,0,0,0,0,0,0,0,0,0,0,0,0,0,0,0,0,0,0,0,7.9542,7.9542,0,7.9552,7.9552,7.9552,7.9479,7.9477,7.9474,7.9473,7.9481,7.9483,7.9485,0,0,0,0,0,0,0,0,0,0,0,0,0,7.9459,7.9461,7.9542,7.9542,7.9542,7.9552,7.9552,7.9552,7.9479,7.9476,7.9474,7.9472,7.948,7.9483,7.9485,0,0,0,0,0,0,0,0,0,0,0,0,0,7.9485,7.9462,7.9542,7.9507,7.9504,7.9552,7.9552,7.9552,7.9479,7.9476,7.9473,7.947,7.9479,7.9482,7.9485,7.9567,0,0,7.9495,7.9497,0,0,0,0,0,0,0,0,7.9483,7.9488,7.9512,7.9509,7.9506,7.9511,7.9526,7.9557,7.948,7.9489,7.9472,7.9469,7.9493,7.9495,7.9503,7.9567,7.9567,7.9495,7.9497,7.9499,7.95,0,0,0,0,0,0,0,7.9482,7.9487,7.9546,7.9512,7.9509,7.949,7.9491,7.9531,7.9508,7.9488,7.9482,7.9485,7.9491,7.9501,7.9503,7.9568,7.9495,7.9498,7.95,7.9501,7.9701,7.9704,0,0,0,0,0,0,7.9485,7.9486,7.9545,7.9546,7.9487,7.9495,7.9495,7.9512,7.9507,7.9504,7.9487,7.9481,7.9497,7.95,7.9503,7.96,7.9499,7.9502,7.9504,7.9698,7.9702,7.9705,0,0,0,0,0,0,7.9483,7.9491,7.9545,7.9515,7.952,7.9499,7.952,7.9514,7.9524,7.9507,7.9502,7.9502,7.9494,7.9499,7.9552,7.9599,7.9503,7.9506,7.9694,7.9699,7.9703,7.9793,0,0,0,0,0,0,7.9481,7.9491,7.9521,7.9516,7.9522,7.9594,7.9522,7.9517,7.953,7.9522,7.9519,7.9516,7.9492,7.9548,7.9555,7.9602,7.9509,7.9689,7.9696,7.9702,7.9786,7.9801,7.9813,0,0,0,0,0,7.9478,7.9545,7.9523,7.9531,7.956,7.9597,7.9601,7.9573,7.9534,7.9565,7.9554,7.9516,7.9593,7.9554,7.9562,7.961,7.9686,7.9694,7.9701,7.978,7.9798,7.9813,0,0,0,0,0,0,7.9555,7.9544,7.9519,7.9586,7.9594,7.9585,7.9623,7.9592,7.961,7.9602,7.9566,7.9566,7.9626,7.9623,7.958,7.969,7.9633,7.9642,7.969,7.9707,7.972,7.972,7.9511,0,0,0,0,0,7.958,7.9612,7.96,7.966,7.9665,7.9644,7.9659,7.9637,7.9642,7.9645,7.9638,7.9645,7.967,7.9688,7.971,7.9785,7.9784,7.9822,7.9836,7.9847,7.9856,7.9897,7.9915,7.973,7.973,7.973,0,0,7.9632,7.9629,7.9651,7.9676,7.9679,7.9713,7.9647,7.9684,7.9709,7.965,7.9701,7.9697,7.9702,7.9767,7.9795,7.9766,7.9907,7.9857,7.9866,7.9869,7.9907,7.9925,7.994,7.9735,7.9734,7.9734,0,0,7.9744,7.9744,7.9796,7.9801,7.9807,7.9792,7.9805,7.9801,7.9797,7.9847,7.9805,7.9833,7.9878,7.9884,7.9893,8.0009,7.9975,8.0017,8.0089,8.013,8.0144,8.0157,8.0201,8.0217,8.0026,8.0026,8.0026,0,7.9807,7.9856,7.9826,7.9868,7.988,7.983,7.9882,7.9888,7.9901,7.9911,7.9878,7.9935,7.9934,8.0001,8.003,8.0038,8.0052,8.0018,8.0145,8.0157,8.0169,8.021,8.0226,8.0031,8.0031,8.003,8.003,0,7.9935,7.997,8.0011,8.0027,8.0043,8.009,8.0067,8.0088,8.0065,8.0054,8.0108,8.0106,8.0128,8.0142,8.0119,8.0206,8.0189,8.0151,8.0093,8.0192,8.023,8.0246,8.0039,8.0037,8.0036,8.0034,0,0,8.0095,8.0095,8.011,8.0118,8.0121,8.0148,8.0193,8.0216,8.0236,8.0246,8.0284,8.0324,8.029,8.03,8.0277,8.0313,8.0408,8.0271,8.0271,8.0298,8.0507,8.0536,8.0555,8.0385,8.0388,8.039,8.0507,0,8.0205,8.0283,8.0258,8.0337,8.037,8.0324,8.0363,8.037,8.0361,8.0388,8.0378,8.0408,8.0359,8.0366,8.0399,8.039,8.045,8.0381,8.0421,8.0423,8.0423,8.0575,8.0605,8.0716,8.0521,8.0524,8.0526,0,8.0345,8.0363,8.0446,8.0447,8.046,8.0496,8.0516,8.0542,8.0549,8.054,8.0553,8.0524,8.0568,8.051,8.0572,8.0525,8.054,8.0538,8.0542,8.0546,8.0481,8.0584,8.075,8.0767,8.0548,8.0547,8.0545,0,8.0456,8.0501,8.0557,8.0565,8.0566,8.0593,8.0595,8.0599,8.0615,8.0632,8.0643,8.0665,8.0677,8.0695,8.0673,8.0632,8.0738,8.0678,8.0733,8.0734,8.0759,8.0758,8.0931,8.0766,8.0766,8.0765,8.0765,0,8.0583,8.0636,8.0608,8.0642,8.0701,8.0671,8.073,8.0726,8.0731,8.0764,8.0724,8.0756,8.0724,8.0753,8.0735,8.079,8.0795,8.079,8.0786,8.0795,8.0796,8.0805,8.0798,8.077,8.0769,8.0768,8.0767,0,8.0717,8.07,8.0759,8.0756,8.0757,8.08,8.0798,8.083,8.0819,8.0862,8.087,8.0853,8.0885,8.0865,8.0897,8.0885,8.0958,8.0941,8.0956,8.0952,8.101,8.1006,8.1197,8.1221,8.1039,8.104,8.1042,0,8.08,8.0841,8.0843,8.0863,8.0868,8.0901,8.0918,8.089,8.091,8.0922,8.0954,8.0983,8.1005,8.1059,8.105,8.1075,8.1059,8.1125,8.1063,8.1072,8.1063,8.1062,8.1066,8.1138,8.114,8.1141,8.1143,0,8.0951,8.0941,8.0967,8.0992,8.1014,8.1032,8.1046,8.1065,8.1037,8.1061,8.1095,8.1113,8.1147,8.1177,8.1198,8.12,8.1168,8.1162,8.1177,8.1188,8.1196,8.1195,8.0992,8.1158,8.1157,8.1156,8.1155,8.1154,8.1063,8.1098,8.1106,8.1137,8.1146,8.1161,8.1192,8.1185,8.1213,8.124,8.1222,8.1262,8.127,8.1295,8.1301,8.1332,8.1306,8.1326,8.1332,8.1338,8.1347,8.119,8.1336,8.1335,8.1335,8.1334,8.1334,0,8.1213,8.1216,8.1246,8.1268,8.1294,8.1262,8.1277,8.13,8.1336,8.1346,8.137,8.141,8.1439,8.1433,8.1459,8.1486,8.1472,8.1494,8.1493,8.1494,8.1368,8.1354,8.1505,8.1505,8.1505,8.1505,8.1505,8.1505,8.1294,8.1352,8.1343,8.1405,8.1407,8.1448,8.146,8.1473,8.1482,8.1529,8.1554,8.1549,8.1553,8.158,8.1606,8.1603,8.1616,8.1644,8.1636,8.1519,8.1502,8.1486,8.1473,8.1647,8.1647,8.176,8.1761,8.1762]}]]